METAR UND TAF INFORMATION
LXGB 191250Z 08009KT 9999 BKN020 BKN250 15/11 Q1020 NOSIG

 FLUGHAFENKARTE

 RUNWAY INFORMATION
Runway 09 Runway length 6000 ft Runway width 150 ft
Runway elevation 10 ft Runway displaced threshold 302 ft Runway heading 88
Runway 27 Runway length 6000 ft Runway width 150 ft
Runway elevation 11 ft Runway displaced threshold 368 ft Runway heading 268

 AIRPORT FREQUENCIES
Type A/D Name APP Frequency 122.8 MHZ
Type OPS Name GIB TALKDO Frequency 130.4 MHZ
Type TWR Name TWR Frequency 131.2 MHZ

 AIRPORT NEAR NAVIGATION AIDS
Type TACAN Name Gibraltar Frequency 113600 KHZ



Version 5.0.1: Changelog

Impressum | Datenschutzerklärung

Virtual Airlines Manager